{"data":{"norad_id":60041,"intl_designator":"2024-112D","name":"STARLINK-11149 [DTC]","alt_names":[],"object_type":"PAYLOAD","status":"ACTIVE","operator":null,"country":"US","launch_date":"2024-06-08","launch_site_code":"AFWTR","launch_vehicle":null,"mission":null,"orbit_class":"UNKNOWN","rcs_meters":null,"size_class":null,"mass_kg":null,"dimensions":null,"purposes":["comms"],"wikipedia_slug":null,"has_3d_model":false,"image_url":null,"decayed_at":null,"tle_current":{"epoch":"2026-09-21T15:08:21.674688Z","epoch_age_seconds":79601,"freshness":"FRESH","line1":"1 60041U 24112D   26264.63080642 -.00000487  00000+0  83382-6 0  9999","line2":"2 60041  53.1590  20.5084 0000657  76.7997 283.3094 15.69703805131758","mean_motion":15.69703805,"eccentricity":6.57e-5,"inclination_deg":53.159,"raan_deg":20.5084,"arg_perigee_deg":76.7997,"mean_anomaly_deg":283.3094,"bstar":8.3382e-7,"rev_number":13175,"period_min":91.737052265093,"perigee_km":359.30179938365,"apogee_km":360.18715700988,"semimajor_km":6737.8814781968,"source":"CELESTRAK","updated_at":"2026-09-22T09:00:49.142329Z"}}}